Time,TemperatureF,DewpointF,PressureIn,WindDirection,WindDirectionDegrees,WindSpeedMPH,WindSpeedGustMPH,Humidity,HourlyPrecipIn,Conditions,Clouds,dailyrainin,SoftwareType,DateUTC
2013-01-13 00:03:00,75.1,65.0,30.14,ENE,67,10.0,10.0,71,0.00,,,0.00,Rainwise IP-100,2013-01-13 05:03:00,
2013-01-13 00:04:00,75.1,65.0,30.14,ESE,112,6.1,10.3,71,0.00,,,0.00,Rainwise IP-100,2013-01-13 05:04:00,
2013-01-13 00:07:00,75.2,65.0,30.15,ENE,67,5.4,10.3,71,0.00,,,0.00,Rainwise IP-100,2013-01-13 05:07:00,
2013-01-13 00:12:00,75.2,65.0,30.14,ENE,67,7.9,12.4,71,0.00,,,0.00,Rainwise IP-100,2013-01-13 05:12:00,
2013-01-13 00:17:00,75.3,65.5,30.14,ENE,67,6.3,12.1,71,0.00,,,0.00,Rainwise IP-100,2013-01-13 05:17:00,
2013-01-13 00:22:00,75.4,65.5,30.14,SSE,157,2.3,10.0,71,0.00,,,0.00,Rainwise IP-100,2013-01-13 05:22:00,
2013-01-13 00:27:00,75.4,66.7,30.14,ESE,112,3.5,11.4,74,0.00,,,0.00,Rainwise IP-100,2013-01-13 05:27:00,
2013-01-13 00:33:00,75.3,67.5,30.14,ESE,112,1.4,9.8,76,0.00,,,0.00,Rainwise IP-100,2013-01-13 05:33:00,
2013-01-13 00:38:00,75.1,67.5,30.14,ENE,67,6.8,8.2,77,0.00,,,0.00,Rainwise IP-100,2013-01-13 05:38:00,
2013-01-13 00:43:00,74.9,67.5,30.14,ESE,112,4.9,11.0,77,0.00,,,0.00,Rainwise IP-100,2013-01-13 05:43:00,
2013-01-13 00:48:00,74.8,67.0,30.14,SSE,157,2.6,7.2,77,0.00,,,0.00,Rainwise IP-100,2013-01-13 05:48:00,
2013-01-13 00:53:00,74.7,68.0,30.14,SSE,157,10.0,10.0,79,0.00,,,0.00,Rainwise IP-100,2013-01-13 05:53:00,
2013-01-13 00:58:00,74.5,68.0,30.14,ESE,112,6.3,12.8,79,0.00,,,0.00,Rainwise IP-100,2013-01-13 05:58:00,
2013-01-13 01:04:00,74.4,67.5,30.14,SSE,157,4.9,12.4,79,0.00,,,0.00,Rainwise IP-100,2013-01-13 06:04:00,
2013-01-13 01:09:00,74.5,67.5,30.14,SSE,157,4.2,12.6,78,0.00,,,0.00,Rainwise IP-100,2013-01-13 06:09:00,
2013-01-13 01:14:00,74.6,67.0,30.14,ESE,112,4.9,9.6,77,0.00,,,0.00,Rainwise IP-100,2013-01-13 06:14:00,
2013-01-13 01:19:00,74.6,67.0,30.14,SSE,157,6.3,13.8,77,0.00,,,0.00,Rainwise IP-100,2013-01-13 06:19:00,
2013-01-13 01:24:00,74.6,67.0,30.14,ESE,112,8.4,12.6,77,0.00,,,0.00,Rainwise IP-100,2013-01-13 06:24:00,
2013-01-13 01:29:00,74.6,66.7,30.14,SSE,157,6.8,11.7,76,0.00,,,0.00,Rainwise IP-100,2013-01-13 06:29:00,
2013-01-13 01:35:00,74.5,66.7,30.14,ESE,112,7.2,11.0,76,0.00,,,0.00,Rainwise IP-100,2013-01-13 06:35:00,
2013-01-13 01:40:00,74.5,66.7,30.14,ESE,112,6.8,16.6,76,0.00,,,0.00,Rainwise IP-100,2013-01-13 06:40:00,
2013-01-13 01:45:00,74.6,66.7,30.14,SE,135,5.1,14.2,76,0.00,,,0.00,Rainwise IP-100,2013-01-13 06:45:00,
2013-01-13 01:50:00,74.5,66.7,30.14,SSE,157,2.1,14.0,76,0.00,,,0.00,Rainwise IP-100,2013-01-13 06:50:00,
2013-01-13 01:55:00,74.5,66.7,30.14,ESE,112,7.0,9.8,76,0.00,,,0.00,Rainwise IP-100,2013-01-13 06:55:00,
2013-01-13 02:00:00,74.5,66.7,30.13,SE,135,5.8,12.1,76,0.00,,,0.00,Rainwise IP-100,2013-01-13 07:00:00,
2013-01-13 02:06:00,74.6,66.7,30.14,SSE,157,3.3,12.8,76,0.00,,,0.00,Rainwise IP-100,2013-01-13 07:06:00,
2013-01-13 02:11:00,74.6,66.3,30.14,ESE,112,4.0,14.5,75,0.00,,,0.00,Rainwise IP-100,2013-01-13 07:11:00,
2013-01-13 02:16:00,74.6,66.3,30.14,SSE,157,4.4,12.1,75,0.00,,,0.00,Rainwise IP-100,2013-01-13 07:16:00,
2013-01-13 02:21:00,74.6,66.3,30.14,SE,135,7.7,13.5,75,0.00,,,0.00,Rainwise IP-100,2013-01-13 07:21:00,
2013-01-13 02:26:00,74.7,66.3,30.14,SE,135,9.8,15.2,75,0.00,,,0.00,Rainwise IP-100,2013-01-13 07:26:00,
2013-01-13 02:31:00,74.7,66.3,30.14,SE,135,8.9,15.6,75,0.00,,,0.00,Rainwise IP-100,2013-01-13 07:31:00,
2013-01-13 02:37:00,74.7,66.3,30.14,ESE,112,10.3,15.6,75,0.00,,,0.00,Rainwise IP-100,2013-01-13 07:37:00,
2013-01-13 02:42:00,74.7,66.7,30.14,SE,135,8.2,16.8,76,0.00,,,0.00,Rainwise IP-100,2013-01-13 07:42:00,
2013-01-13 02:47:00,74.6,66.7,30.14,ESE,112,4.4,15.9,76,0.00,,,0.00,Rainwise IP-100,2013-01-13 07:47:00,
2013-01-13 02:52:00,74.5,66.3,30.14,SSE,157,2.3,12.6,75,0.00,,,0.00,Rainwise IP-100,2013-01-13 07:52:00,
2013-01-13 02:57:00,74.5,66.0,30.14,ESE,112,4.9,13.1,74,0.00,,,0.00,Rainwise IP-100,2013-01-13 07:57:00,
2013-01-13 03:02:00,74.5,66.0,30.14,ESE,112,6.1,13.8,73,0.00,,,0.00,Rainwise IP-100,2013-01-13 08:02:00,
2013-01-13 03:08:00,74.5,66.0,30.13,SE,135,4.2,13.8,73,0.00,,,0.00,Rainwise IP-100,2013-01-13 08:08:00,
2013-01-13 03:13:00,74.7,66.0,30.13,SSE,157,10.5,15.2,73,0.00,,,0.00,Rainwise IP-100,2013-01-13 08:13:00,
2013-01-13 03:18:00,74.7,66.0,30.13,ESE,112,9.6,14.9,73,0.00,,,0.00,Rainwise IP-100,2013-01-13 08:18:00,
2013-01-13 03:23:00,74.6,66.0,30.13,ENE,67,9.3,15.6,74,0.00,,,0.00,Rainwise IP-100,2013-01-13 08:23:00,
2013-01-13 03:28:00,74.4,66.0,30.13,ESE,112,8.9,15.9,74,0.00,,,0.00,Rainwise IP-100,2013-01-13 08:28:00,
2013-01-13 03:33:00,74.4,65.5,30.12,ESE,112,5.6,13.5,73,0.00,,,0.00,Rainwise IP-100,2013-01-13 08:33:00,
2013-01-13 03:39:00,74.4,65.5,30.13,SSE,157,4.0,15.6,73,0.00,,,0.00,Rainwise IP-100,2013-01-13 08:39:00,
2013-01-13 03:44:00,74.4,65.5,30.11,ESE,112,5.4,18.9,73,0.00,,,0.00,Rainwise IP-100,2013-01-13 08:44:00,
2013-01-13 03:49:00,74.3,66.0,30.13,SSE,157,2.8,19.4,74,0.00,,,0.00,Rainwise IP-100,2013-01-13 08:49:00,
2013-01-13 03:54:00,74.3,66.3,30.12,ESE,112,5.8,16.6,75,0.00,,,0.00,Rainwise IP-100,2013-01-13 08:54:00,
2013-01-13 03:59:00,74.3,66.3,30.12,ESE,112,5.4,13.8,75,0.00,,,0.00,Rainwise IP-100,2013-01-13 08:59:00,
2013-01-13 04:05:00,74.3,66.3,30.12,SE,135,13.1,13.1,75,0.00,,,0.00,Rainwise IP-100,2013-01-13 09:05:00,
2013-01-13 04:10:00,74.3,66.0,30.12,SSE,157,3.3,13.3,74,0.00,,,0.00,Rainwise IP-100,2013-01-13 09:10:00,
2013-01-13 04:15:00,74.3,66.0,30.12,ESE,112,1.2,14.2,74,0.00,,,0.00,Rainwise IP-100,2013-01-13 09:15:00,
2013-01-13 04:20:00,74.3,65.5,30.12,ENE,67,5.8,11.9,73,0.00,,,0.00,Rainwise IP-100,2013-01-13 09:20:00,
2013-01-13 04:25:00,74.2,65.5,30.13,ESE,112,4.2,13.3,73,0.00,,,0.00,Rainwise IP-100,2013-01-13 09:25:00,
2013-01-13 04:30:00,74.2,65.0,30.13,East,90,5.6,12.8,72,0.00,,,0.00,Rainwise IP-100,2013-01-13 09:30:00,
2013-01-13 04:36:00,74.2,65.0,30.13,SSE,157,4.0,10.3,72,0.00,,,0.00,Rainwise IP-100,2013-01-13 09:36:00,
2013-01-13 04:41:00,74.1,64.5,30.13,SSE,157,2.6,10.3,72,0.00,,,0.00,Rainwise IP-100,2013-01-13 09:41:00,
2013-01-13 04:46:00,74.0,64.5,30.13,SSE,157,3.0,8.4,72,0.00,,,0.00,Rainwise IP-100,2013-01-13 09:46:00,
2013-01-13 04:51:00,74.1,65.0,30.13,SE,135,2.1,8.4,73,0.00,,,0.00,Rainwise IP-100,2013-01-13 09:51:00,
2013-01-13 04:56:00,74.0,65.0,30.13,ESE,112,3.7,7.5,73,0.00,,,0.00,Rainwise IP-100,2013-01-13 09:56:00,
2013-01-13 05:01:00,73.9,65.5,30.13,SE,135,4.0,8.6,74,0.00,,,0.00,Rainwise IP-100,2013-01-13 10:01:00,
2013-01-13 05:06:00,74.0,65.0,30.13,ESE,112,2.3,8.4,73,0.00,,,0.00,Rainwise IP-100,2013-01-13 10:06:00,
2013-01-13 05:12:00,74.0,65.5,30.13,ENE,67,1.2,6.8,74,0.00,,,0.00,Rainwise IP-100,2013-01-13 10:12:00,
2013-01-13 05:17:00,73.9,65.5,30.13,SSE,157,4.0,6.3,74,0.00,,,0.00,Rainwise IP-100,2013-01-13 10:17:00,
2013-01-13 05:22:00,73.9,65.5,30.14,ESE,112,3.3,9.6,74,0.00,,,0.00,Rainwise IP-100,2013-01-13 10:22:00,
2013-01-13 05:27:00,73.9,65.5,30.14,ESE,112,3.5,8.9,74,0.00,,,0.00,Rainwise IP-100,2013-01-13 10:27:00,
2013-01-13 05:32:00,74.0,65.5,30.14,ESE,112,2.1,9.1,74,0.00,,,0.00,Rainwise IP-100,2013-01-13 10:32:00,
2013-01-13 05:37:00,74.0,65.5,30.14,East,90,4.9,14.7,74,0.00,,,0.00,Rainwise IP-100,2013-01-13 10:37:00,
2013-01-13 05:43:00,74.0,65.5,30.14,ENE,67,4.0,10.5,74,0.00,,,0.00,Rainwise IP-100,2013-01-13 10:43:00,
2013-01-13 05:48:00,74.1,65.5,30.14,ESE,112,4.7,8.6,74,0.00,,,0.00,Rainwise IP-100,2013-01-13 10:48:00,
2013-01-13 05:53:00,74.0,66.0,30.14,East,90,1.9,7.2,75,0.00,,,0.00,Rainwise IP-100,2013-01-13 10:53:00,
2013-01-13 05:58:00,74.0,66.0,30.14,East,90,4.0,5.8,75,0.00,,,0.00,Rainwise IP-100,2013-01-13 10:58:00,
2013-01-13 06:03:00,73.9,66.0,30.14,ESE,112,4.0,14.7,75,0.00,,,0.00,Rainwise IP-100,2013-01-13 11:03:00,
2013-01-13 06:08:00,73.9,66.0,30.14,SSE,157,1.9,10.7,75,0.00,,,0.00,Rainwise IP-100,2013-01-13 11:08:00,
2013-01-13 06:14:00,74.0,66.0,30.13,SSE,157,0.0,12.1,75,0.00,,,0.00,Rainwise IP-100,2013-01-13 11:14:00,
2013-01-13 06:19:00,74.0,66.0,30.14,SE,135,6.1,12.6,75,0.00,,,0.00,Rainwise IP-100,2013-01-13 11:19:00,
2013-01-13 06:24:00,74.0,66.0,30.14,SSE,157,3.0,10.3,75,0.00,,,0.00,Rainwise IP-100,2013-01-13 11:24:00,
2013-01-13 06:29:00,73.9,66.0,30.14,SSE,157,2.1,10.5,75,0.00,,,0.00,Rainwise IP-100,2013-01-13 11:29:00,
2013-01-13 06:34:00,73.9,66.0,30.13,East,90,2.8,12.1,75,0.00,,,0.00,Rainwise IP-100,2013-01-13 11:34:00,
2013-01-13 06:39:00,73.9,66.0,30.14,ENE,67,4.4,10.5,75,0.00,,,0.00,Rainwise IP-100,2013-01-13 11:39:00,
2013-01-13 06:45:00,74.0,65.5,30.13,ESE,112,3.3,8.6,74,0.00,,,0.00,Rainwise IP-100,2013-01-13 11:45:00,
2013-01-13 06:50:00,74.0,66.0,30.13,ENE,67,10.5,10.5,75,0.00,,,0.00,Rainwise IP-100,2013-01-13 11:50:00,
2013-01-13 06:55:00,74.1,66.0,30.12,ENE,67,9.3,10.7,75,0.00,,,0.00,Rainwise IP-100,2013-01-13 11:55:00,
2013-01-13 07:00:00,74.2,66.3,30.13,East,90,4.0,12.8,75,0.00,,,0.00,Rainwise IP-100,2013-01-13 12:00:00,
2013-01-13 07:05:00,74.1,66.0,30.13,ESE,112,3.0,7.5,75,0.00,,,0.00,Rainwise IP-100,2013-01-13 12:05:00,
2013-01-13 07:10:00,74.1,66.3,30.13,East,90,7.2,11.7,76,0.00,,,0.00,Rainwise IP-100,2013-01-13 12:10:00,
2013-01-13 07:16:00,74.1,66.3,30.13,ENE,67,8.6,12.1,76,0.00,,,0.00,Rainwise IP-100,2013-01-13 12:16:00,
2013-01-13 07:21:00,74.2,66.7,30.13,ESE,112,15.6,16.1,77,0.00,,,0.00,Rainwise IP-100,2013-01-13 12:21:00,
2013-01-13 07:31:00,74.2,66.3,30.14,ENE,67,3.3,0.0,76,0.00,,,0.00,Rainwise IP-100,2013-01-13 12:31:00,
2013-01-13 07:36:00,74.2,66.3,30.14,SSE,157,4.4,11.4,76,0.00,,,0.00,Rainwise IP-100,2013-01-13 12:36:00,
2013-01-13 07:41:00,74.4,66.3,30.14,East,90,6.8,13.5,76,0.00,,,0.00,Rainwise IP-100,2013-01-13 12:41:00,
2013-01-13 07:47:00,74.5,66.7,30.13,ESE,112,4.7,12.4,76,0.00,,,0.00,Rainwise IP-100,2013-01-13 12:47:00,
2013-01-13 07:52:00,74.5,67.0,30.13,ENE,67,7.9,13.1,77,0.00,,,0.00,Rainwise IP-100,2013-01-13 12:52:00,
2013-01-13 07:57:00,74.5,67.0,30.14,ESE,112,6.5,10.5,77,0.00,,,0.00,Rainwise IP-100,2013-01-13 12:57:00,
2013-01-13 08:04:00,74.5,67.0,30.14,SE,135,2.3,0.0,77,0.00,,,0.00,Rainwise IP-100,2013-01-13 13:04:00,
2013-01-13 08:09:00,74.5,67.0,30.13,SE,135,4.9,11.9,77,0.00,,,0.00,Rainwise IP-100,2013-01-13 13:09:00,
2013-01-13 08:14:00,74.7,67.0,30.14,East,90,4.9,14.2,77,0.00,,,0.00,Rainwise IP-100,2013-01-13 13:14:00,
2013-01-13 08:19:00,74.9,67.5,30.14,ENE,67,5.8,11.4,77,0.00,,,0.00,Rainwise IP-100,2013-01-13 13:19:00,
2013-01-13 08:25:00,75.0,67.5,30.14,SSE,157,5.6,12.8,77,0.00,,,0.00,Rainwise IP-100,2013-01-13 13:25:00,
2013-01-13 08:30:00,75.0,67.0,30.14,ESE,112,6.1,11.7,76,0.00,,,0.00,Rainwise IP-100,2013-01-13 13:30:00,
2013-01-13 08:35:00,75.0,66.7,30.14,SSE,157,3.3,12.6,75,0.00,,,0.00,Rainwise IP-100,2013-01-13 13:35:00,
2013-01-13 08:40:00,75.0,66.7,30.14,ESE,112,3.5,13.3,75,0.00,,,0.00,Rainwise IP-100,2013-01-13 13:40:00,
2013-01-13 08:45:00,75.0,67.0,30.14,ESE,112,9.6,12.4,76,0.00,,,0.00,Rainwise IP-100,2013-01-13 13:45:00,
2013-01-13 08:50:00,75.0,67.0,30.14,SE,135,4.7,15.6,76,0.00,,,0.00,Rainwise IP-100,2013-01-13 13:50:00,
2013-01-13 08:56:00,75.1,67.5,30.14,ESE,112,3.0,13.8,77,0.00,,,0.00,Rainwise IP-100,2013-01-13 13:56:00,
2013-01-13 09:01:00,75.3,68.0,30.14,ESE,112,5.4,10.0,77,0.00,,,0.00,Rainwise IP-100,2013-01-13 14:01:00,
2013-01-13 09:06:00,75.4,67.5,30.14,SE,135,4.4,18.0,76,0.00,,,0.00,Rainwise IP-100,2013-01-13 14:06:00,
2013-01-13 09:11:00,75.3,67.0,30.14,SE,135,10.7,18.2,75,0.00,,,0.00,Rainwise IP-100,2013-01-13 14:11:00,
2013-01-13 09:16:00,75.2,66.7,30.14,ESE,112,7.9,14.2,75,0.00,,,0.00,Rainwise IP-100,2013-01-13 14:16:00,
2013-01-13 09:21:00,75.4,67.0,30.15,SE,135,5.6,12.4,75,0.00,,,0.00,Rainwise IP-100,2013-01-13 14:21:00,
2013-01-13 09:27:00,75.3,66.7,30.15,SSE,157,6.5,18.4,74,0.00,,,0.00,Rainwise IP-100,2013-01-13 14:27:00,
2013-01-13 09:32:00,75.3,66.3,30.15,ESE,112,3.7,15.6,73,0.00,,,0.00,Rainwise IP-100,2013-01-13 14:32:00,
2013-01-13 09:37:00,75.6,66.7,30.16,ESE,112,5.1,14.0,74,0.00,,,0.00,Rainwise IP-100,2013-01-13 14:37:00,
2013-01-13 09:42:00,75.8,66.7,30.16,SE,135,7.7,15.2,73,0.00,,,0.00,Rainwise IP-100,2013-01-13 14:42:00,
2013-01-13 09:47:00,75.8,66.3,30.16,SE,135,11.9,17.5,72,0.00,,,0.00,Rainwise IP-100,2013-01-13 14:47:00,
2013-01-13 09:52:00,75.8,66.3,30.16,ESE,112,8.2,16.3,72,0.00,,,0.00,Rainwise IP-100,2013-01-13 14:52:00,
2013-01-13 09:58:00,75.7,66.3,30.16,SSE,157,3.0,15.2,73,0.00,,,0.00,Rainwise IP-100,2013-01-13 14:58:00,
2013-01-13 10:03:00,75.8,66.7,30.16,ESE,112,6.1,16.1,73,0.00,,,0.00,Rainwise IP-100,2013-01-13 15:03:00,
2013-01-13 10:08:00,76.0,66.7,30.16,SSE,157,3.7,17.0,73,0.00,,,0.00,Rainwise IP-100,2013-01-13 15:08:00,
2013-01-13 10:13:00,76.1,66.3,30.16,SE,135,10.0,17.3,72,0.00,,,0.00,Rainwise IP-100,2013-01-13 15:13:00,
2013-01-13 10:18:00,76.3,66.7,30.16,SSE,157,12.8,17.5,72,0.00,,,0.00,Rainwise IP-100,2013-01-13 15:18:00,
2013-01-13 10:24:00,76.3,66.7,30.15,East,90,7.0,16.6,72,0.00,,,0.00,Rainwise IP-100,2013-01-13 15:24:00,
2013-01-13 10:29:00,76.3,66.7,30.15,SE,135,9.1,15.2,72,0.00,,,0.00,Rainwise IP-100,2013-01-13 15:29:00,
2013-01-13 10:34:00,76.2,66.7,30.15,ESE,112,12.6,17.0,72,0.00,,,0.00,Rainwise IP-100,2013-01-13 15:34:00,
2013-01-13 10:39:00,76.1,66.3,30.15,ESE,112,10.0,17.3,72,0.00,,,0.00,Rainwise IP-100,2013-01-13 15:39:00,
2013-01-13 10:44:00,76.1,66.7,30.15,ESE,112,8.2,14.2,73,0.00,,,0.00,Rainwise IP-100,2013-01-13 15:44:00,
2013-01-13 10:49:00,76.0,67.0,30.15,SSE,157,5.1,16.6,74,0.00,,,0.00,Rainwise IP-100,2013-01-13 15:49:00,
2013-01-13 10:54:00,76.0,67.0,30.15,SSE,157,10.5,16.1,74,0.00,,,0.00,Rainwise IP-100,2013-01-13 15:54:00,
2013-01-13 11:00:00,76.0,66.7,30.14,SSE,157,7.5,16.1,73,0.00,,,0.00,Rainwise IP-100,2013-01-13 16:00:00,
2013-01-13 11:05:00,76.3,66.7,30.15,SE,135,11.0,18.4,72,0.00,,,0.00,Rainwise IP-100,2013-01-13 16:05:00,
2013-01-13 11:10:00,76.4,66.3,30.15,ESE,112,9.1,18.9,71,0.00,,,0.00,Rainwise IP-100,2013-01-13 16:10:00,
2013-01-13 11:15:00,76.3,66.0,30.16,ESE,112,9.3,15.4,70,0.00,,,0.00,Rainwise IP-100,2013-01-13 16:15:00,
2013-01-13 11:20:00,76.4,66.0,30.15,ESE,112,7.2,16.1,70,0.00,,,0.00,Rainwise IP-100,2013-01-13 16:20:00,
2013-01-13 11:25:00,76.4,66.0,30.16,SE,135,5.4,17.0,70,0.00,,,0.00,Rainwise IP-100,2013-01-13 16:25:00,
2013-01-13 11:31:00,76.3,66.0,30.16,WSW,247,4.9,14.7,70,0.00,,,0.00,Rainwise IP-100,2013-01-13 16:31:00,
2013-01-13 11:36:00,76.5,66.0,30.16,SE,135,6.8,14.0,70,0.00,,,0.00,Rainwise IP-100,2013-01-13 16:36:00,
2013-01-13 11:41:00,76.9,66.7,30.16,ESE,112,8.4,10.3,70,0.00,,,0.00,Rainwise IP-100,2013-01-13 16:41:00,
2013-01-13 11:46:00,77.1,66.3,30.16,ESE,112,6.8,14.0,69,0.00,,,0.00,Rainwise IP-100,2013-01-13 16:46:00,
2013-01-13 11:51:00,76.9,66.3,30.16,SSE,157,8.6,13.1,69,0.00,,,0.00,Rainwise IP-100,2013-01-13 16:51:00,
2013-01-13 11:56:00,76.9,66.3,30.17,SSE,157,7.2,14.0,69,0.00,,,0.00,Rainwise IP-100,2013-01-13 16:56:00,
2013-01-13 12:02:00,77.2,66.7,30.16,East,90,3.3,13.3,69,0.00,,,0.00,Rainwise IP-100,2013-01-13 17:02:00,
2013-01-13 12:07:00,77.6,66.3,30.16,SSW,202,1.6,9.3,68,0.00,,,0.00,Rainwise IP-100,2013-01-13 17:07:00,
2013-01-13 12:12:00,77.8,66.0,30.16,SE,135,4.4,14.0,67,0.00,,,0.00,Rainwise IP-100,2013-01-13 17:12:00,
2013-01-13 12:17:00,77.7,66.0,30.16,SSE,157,9.3,11.2,67,0.00,,,0.00,Rainwise IP-100,2013-01-13 17:17:00,
2013-01-13 12:22:00,78.1,66.0,30.16,ESE,112,4.7,11.4,66,0.00,,,0.00,Rainwise IP-100,2013-01-13 17:22:00,
2013-01-13 12:27:00,78.1,65.5,30.16,ESE,112,4.9,13.1,65,0.00,,,0.00,Rainwise IP-100,2013-01-13 17:27:00,
2013-01-13 12:33:00,77.6,65.0,30.16,SSW,202,4.0,14.5,65,0.00,,,0.00,Rainwise IP-100,2013-01-13 17:33:00,
2013-01-13 12:38:00,78.0,66.0,30.16,SE,135,3.3,8.9,66,0.00,,,0.00,Rainwise IP-100,2013-01-13 17:38:00,
2013-01-13 12:43:00,78.4,66.0,30.16,ESE,112,5.1,13.5,65,0.00,,,0.00,Rainwise IP-100,2013-01-13 17:43:00,
2013-01-13 12:48:00,78.0,65.0,30.16,SSE,157,7.0,12.8,64,0.00,,,0.00,Rainwise IP-100,2013-01-13 17:48:00,
2013-01-13 12:53:00,77.6,65.0,30.16,ESE,112,7.9,11.4,65,0.00,,,0.00,Rainwise IP-100,2013-01-13 17:53:00,
2013-01-13 12:58:00,77.3,65.5,30.15,ESE,112,7.0,10.0,66,0.00,,,0.00,Rainwise IP-100,2013-01-13 17:58:00,
2013-01-13 13:04:00,77.4,65.5,30.16,ESE,112,4.4,11.2,66,0.00,,,0.00,Rainwise IP-100,2013-01-13 18:04:00,
2013-01-13 13:09:00,77.7,65.5,30.16,ESE,112,2.8,11.4,66,0.00,,,0.00,Rainwise IP-100,2013-01-13 18:09:00,
2013-01-13 13:14:00,78.1,65.5,30.16,ESE,112,3.3,10.5,65,0.00,,,0.00,Rainwise IP-100,2013-01-13 18:14:00,
2013-01-13 13:19:00,78.0,65.0,30.15,SE,135,5.8,11.2,64,0.00,,,0.00,Rainwise IP-100,2013-01-13 18:19:00,
2013-01-13 13:24:00,77.7,64.5,30.16,SE,135,4.9,11.7,64,0.00,,,0.00,Rainwise IP-100,2013-01-13 18:24:00,
2013-01-13 13:29:00,77.6,64.5,30.16,ESE,112,4.7,9.6,64,0.00,,,0.00,Rainwise IP-100,2013-01-13 18:29:00,
2013-01-13 13:35:00,77.9,65.0,30.15,ESE,112,8.6,8.6,64,0.00,,,0.00,Rainwise IP-100,2013-01-13 18:35:00,
2013-01-13 13:40:00,78.0,64.5,30.16,SSE,157,1.2,8.9,63,0.00,,,0.00,Rainwise IP-100,2013-01-13 18:40:00,
2013-01-13 13:45:00,78.5,64.5,30.15,ESE,112,5.6,7.2,62,0.00,,,0.00,Rainwise IP-100,2013-01-13 18:45:00,
2013-01-13 13:50:00,78.5,64.0,30.15,SSE,157,3.3,9.1,61,0.00,,,0.00,Rainwise IP-100,2013-01-13 18:50:00,
2013-01-13 13:55:00,77.9,64.0,30.15,ESE,112,4.2,10.5,62,0.00,,,0.00,Rainwise IP-100,2013-01-13 18:55:00,
2013-01-13 14:00:00,77.7,64.5,30.15,ESE,112,4.4,11.2,64,0.00,,,0.00,Rainwise IP-100,2013-01-13 19:00:00,
2013-01-13 14:06:00,77.6,64.5,30.15,SE,135,3.5,9.3,64,0.00,,,0.00,Rainwise IP-100,2013-01-13 19:06:00,
2013-01-13 14:11:00,77.6,64.5,30.15,SSE,157,5.1,10.7,64,0.00,,,0.00,Rainwise IP-100,2013-01-13 19:11:00,
2013-01-13 14:16:00,77.7,64.5,30.15,ESE,112,5.6,9.8,64,0.00,,,0.00,Rainwise IP-100,2013-01-13 19:16:00,
2013-01-13 14:21:00,77.8,65.0,30.15,SSE,157,2.6,11.0,65,0.00,,,0.00,Rainwise IP-100,2013-01-13 19:21:00,
2013-01-13 14:26:00,77.9,65.0,30.15,SE,135,5.6,8.6,64,0.00,,,0.00,Rainwise IP-100,2013-01-13 19:26:00,
2013-01-13 14:31:00,77.9,64.5,30.15,SE,135,5.8,7.0,63,0.00,,,0.00,Rainwise IP-100,2013-01-13 19:31:00,
2013-01-13 14:37:00,77.9,65.0,30.15,SSE,157,2.8,9.6,64,0.00,,,0.00,Rainwise IP-100,2013-01-13 19:37:00,
2013-01-13 14:42:00,77.8,64.5,30.14,SE,135,7.2,9.1,64,0.00,,,0.00,Rainwise IP-100,2013-01-13 19:42:00,
2013-01-13 14:47:00,77.8,64.5,30.15,SSE,157,3.3,9.1,64,0.00,,,0.00,Rainwise IP-100,2013-01-13 19:47:00,
2013-01-13 14:52:00,78.0,65.0,30.14,ESE,112,1.4,8.4,64,0.00,,,0.00,Rainwise IP-100,2013-01-13 19:52:00,
2013-01-13 14:57:00,78.0,65.0,30.14,South,180,1.9,7.2,64,0.00,,,0.00,Rainwise IP-100,2013-01-13 19:57:00,
2013-01-13 15:02:00,78.2,65.0,30.15,ENE,67,2.8,7.9,63,0.00,,,0.00,Rainwise IP-100,2013-01-13 20:02:00,
2013-01-13 15:08:00,78.3,64.5,30.14,ESE,112,2.8,7.5,62,0.00,,,0.00,Rainwise IP-100,2013-01-13 20:08:00,
2013-01-13 15:13:00,78.1,63.5,30.14,SSW,202,1.4,7.9,61,0.00,,,0.00,Rainwise IP-100,2013-01-13 20:13:00,
2013-01-13 15:18:00,78.1,64.0,30.14,ESE,112,4.7,7.9,62,0.00,,,0.00,Rainwise IP-100,2013-01-13 20:18:00,
2013-01-13 15:23:00,78.1,64.5,30.14,ESE,112,6.3,6.8,63,0.00,,,0.00,Rainwise IP-100,2013-01-13 20:23:00,
2013-01-13 15:28:00,78.1,64.5,30.15,ESE,112,6.8,8.2,63,0.00,,,0.00,Rainwise IP-100,2013-01-13 20:28:00,
2013-01-13 15:34:00,78.1,64.5,30.15,ESE,112,1.9,7.7,63,0.00,,,0.00,Rainwise IP-100,2013-01-13 20:34:00,
2013-01-13 15:39:00,77.8,64.5,30.15,SSE,157,4.0,7.9,64,0.00,,,0.00,Rainwise IP-100,2013-01-13 20:39:00,
2013-01-13 15:44:00,77.6,65.0,30.15,ESE,112,6.8,10.3,65,0.00,,,0.00,Rainwise IP-100,2013-01-13 20:44:00,
2013-01-13 15:49:00,77.7,65.0,30.16,SSE,157,4.9,8.2,65,0.00,,,0.00,Rainwise IP-100,2013-01-13 20:49:00,
2013-01-13 15:54:00,77.8,65.0,30.16,SSE,157,3.5,8.6,65,0.00,,,0.00,Rainwise IP-100,2013-01-13 20:54:00,
2013-01-13 15:59:00,77.9,65.5,30.16,SSE,157,4.4,8.4,65,0.00,,,0.00,Rainwise IP-100,2013-01-13 20:59:00,
2013-01-13 16:04:00,77.7,65.0,30.16,ESE,112,2.3,9.1,65,0.00,,,0.00,Rainwise IP-100,2013-01-13 21:04:00,
2013-01-13 16:10:00,78.1,65.5,30.16,SSE,157,2.3,6.3,65,0.00,,,0.00,Rainwise IP-100,2013-01-13 21:10:00,
2013-01-13 16:15:00,78.5,66.0,30.16,SE,135,4.4,7.5,65,0.00,,,0.00,Rainwise IP-100,2013-01-13 21:15:00,
2013-01-13 16:20:00,77.9,65.0,30.16,South,180,4.0,7.2,64,0.00,,,0.00,Rainwise IP-100,2013-01-13 21:20:00,
2013-01-13 16:25:00,77.5,64.5,30.16,ENE,67,7.0,10.3,64,0.00,,,0.00,Rainwise IP-100,2013-01-13 21:25:00,
2013-01-13 16:30:00,77.1,64.5,30.16,SSE,157,4.4,11.9,65,0.00,,,0.00,Rainwise IP-100,2013-01-13 21:30:00,
2013-01-13 16:35:00,77.0,65.0,30.17,SSE,157,6.8,9.1,66,0.00,,,0.00,Rainwise IP-100,2013-01-13 21:35:00,
2013-01-13 16:41:00,76.8,64.5,30.17,ESE,112,5.6,8.9,66,0.00,,,0.00,Rainwise IP-100,2013-01-13 21:41:00,
2013-01-13 16:46:00,76.6,65.0,30.17,SSW,202,4.0,7.2,67,0.00,,,0.00,Rainwise IP-100,2013-01-13 21:46:00,
2013-01-13 16:51:00,76.5,65.0,30.17,ESE,112,4.7,8.6,67,0.00,,,0.00,Rainwise IP-100,2013-01-13 21:51:00,
2013-01-13 16:56:00,76.2,64.5,30.18,ESE,112,2.3,7.2,67,0.00,,,0.00,Rainwise IP-100,2013-01-13 21:56:00,
2013-01-13 17:01:00,76.1,64.5,30.17,SSE,157,2.6,8.9,68,0.00,,,0.00,Rainwise IP-100,2013-01-13 22:01:00,
2013-01-13 17:06:00,75.9,64.5,30.17,SSE,157,3.3,8.4,68,0.00,,,0.00,Rainwise IP-100,2013-01-13 22:06:00,
2013-01-13 17:12:00,75.8,65.0,30.17,East,90,0.0,6.1,69,0.00,,,0.00,Rainwise IP-100,2013-01-13 22:12:00,
2013-01-13 17:17:00,75.7,65.0,30.17,East,90,4.2,7.2,70,0.00,,,0.00,Rainwise IP-100,2013-01-13 22:17:00,
2013-01-13 17:22:00,75.5,65.0,30.17,ESE,112,0.0,7.9,70,0.00,,,0.00,Rainwise IP-100,2013-01-13 22:22:00,
2013-01-13 17:27:00,75.4,65.0,30.17,ENE,67,3.7,10.5,70,0.00,,,0.00,Rainwise IP-100,2013-01-13 22:27:00,
2013-01-13 17:32:00,75.2,65.0,30.17,ESE,112,4.4,9.8,70,0.00,,,0.00,Rainwise IP-100,2013-01-13 22:32:00,
2013-01-13 17:37:00,75.2,64.5,30.17,East,90,6.1,10.7,69,0.00,,,0.00,Rainwise IP-100,2013-01-13 22:37:00,
2013-01-13 17:43:00,75.2,64.5,30.17,ESE,112,3.3,10.3,69,0.00,,,0.00,Rainwise IP-100,2013-01-13 22:43:00,
2013-01-13 17:48:00,75.1,65.0,30.17,NNE,22,0.0,7.5,70,0.00,,,0.00,Rainwise IP-100,2013-01-13 22:48:00,
2013-01-13 17:53:00,74.9,65.0,30.18,ESE,112,2.3,8.2,70,0.00,,,0.00,Rainwise IP-100,2013-01-13 22:53:00,
2013-01-13 17:58:00,74.9,65.0,30.18,ENE,67,2.1,11.0,70,0.00,,,0.00,Rainwise IP-100,2013-01-13 22:58:00,
2013-01-13 18:03:00,74.9,65.0,30.18,ENE,67,5.4,8.9,71,0.00,,,0.00,Rainwise IP-100,2013-01-13 23:03:00,
2013-01-13 18:08:00,74.9,65.0,30.18,ESE,112,6.1,12.6,71,0.00,,,0.00,Rainwise IP-100,2013-01-13 23:08:00,
2013-01-13 18:14:00,74.9,65.5,30.18,ENE,67,0.0,9.6,72,0.00,,,0.00,Rainwise IP-100,2013-01-13 23:14:00,
2013-01-13 18:19:00,74.8,65.5,30.18,SE,135,7.5,8.4,72,0.00,,,0.00,Rainwise IP-100,2013-01-13 23:19:00,
2013-01-13 18:24:00,74.8,65.5,30.18,ESE,112,4.4,13.1,72,0.00,,,0.00,Rainwise IP-100,2013-01-13 23:24:00,
2013-01-13 18:29:00,74.8,65.5,30.17,ESE,112,3.7,9.8,72,0.00,,,0.00,Rainwise IP-100,2013-01-13 23:29:00,
2013-01-13 18:34:00,74.7,65.5,30.18,East,90,7.0,10.5,72,0.00,,,0.00,Rainwise IP-100,2013-01-13 23:34:00,
2013-01-13 18:39:00,74.6,66.0,30.18,ESE,112,0.0,8.6,73,0.00,,,0.00,Rainwise IP-100,2013-01-13 23:39:00,
2013-01-13 18:45:00,74.6,66.0,30.17,ESE,112,5.1,9.3,73,0.00,,,0.00,Rainwise IP-100,2013-01-13 23:45:00,
2013-01-13 18:50:00,74.5,66.0,30.18,ESE,112,3.5,10.0,73,0.00,,,0.00,Rainwise IP-100,2013-01-13 23:50:00,
2013-01-13 18:55:00,74.5,66.0,30.18,SSE,157,0.0,11.2,74,0.00,,,0.00,Rainwise IP-100,2013-01-13 23:55:00,
2013-01-13 19:00:00,74.5,66.0,30.18,East,90,6.8,10.5,74,0.00,,,0.00,Rainwise IP-100,2013-01-14 00:00:00,
2013-01-13 19:05:00,74.4,65.5,30.18,ESE,112,6.5,9.1,73,0.00,,,0.00,Rainwise IP-100,2013-01-14 00:05:00,
2013-01-13 19:10:00,74.5,65.5,30.17,ESE,112,8.6,10.7,72,0.00,,,0.00,Rainwise IP-100,2013-01-14 00:10:00,
2013-01-13 19:16:00,74.5,65.5,30.18,East,90,12.6,14.0,72,0.00,,,0.00,Rainwise IP-100,2013-01-14 00:16:00,
2013-01-13 19:21:00,74.5,65.0,30.18,ENE,67,11.0,16.3,71,0.00,,,0.00,Rainwise IP-100,2013-01-14 00:21:00,
2013-01-13 19:26:00,74.5,65.0,30.17,ESE,112,4.4,11.7,71,0.00,,,0.00,Rainwise IP-100,2013-01-14 00:26:00,
2013-01-13 19:31:00,74.5,65.0,30.18,ESE,112,4.4,13.8,71,0.00,,,0.00,Rainwise IP-100,2013-01-14 00:31:00,
2013-01-13 19:36:00,74.5,65.0,30.18,ESE,112,6.5,12.4,71,0.00,,,0.00,Rainwise IP-100,2013-01-14 00:36:00,
2013-01-13 19:41:00,74.5,65.0,30.18,SSE,157,2.6,11.4,71,0.00,,,0.00,Rainwise IP-100,2013-01-14 00:41:00,
2013-01-13 19:47:00,74.5,65.0,30.18,ENE,67,5.6,11.7,71,0.00,,,0.00,Rainwise IP-100,2013-01-14 00:47:00,
2013-01-13 19:52:00,74.4,64.0,30.18,ENE,67,6.1,10.7,70,0.00,,,0.00,Rainwise IP-100,2013-01-14 00:52:00,
2013-01-13 19:57:00,74.4,63.5,30.17,SE,135,8.9,9.3,69,0.00,,,0.00,Rainwise IP-100,2013-01-14 00:57:00,
2013-01-13 20:02:00,74.4,63.5,30.17,ENE,67,2.6,9.1,69,0.00,,,0.00,Rainwise IP-100,2013-01-14 01:02:00,
2013-01-13 20:08:00,74.4,64.0,30.17,ENE,67,6.3,12.6,70,0.00,,,0.00,Rainwise IP-100,2013-01-14 01:08:00,
2013-01-13 20:13:00,74.4,64.0,30.17,ESE,112,6.3,10.5,70,0.00,,,0.00,Rainwise IP-100,2013-01-14 01:13:00,
2013-01-13 20:18:00,74.4,63.5,30.17,ESE,112,4.7,13.8,69,0.00,,,0.00,Rainwise IP-100,2013-01-14 01:18:00,
2013-01-13 20:23:00,74.3,64.0,30.17,SSE,157,6.5,10.7,70,0.00,,,0.00,Rainwise IP-100,2013-01-14 01:23:00,
2013-01-13 20:28:00,74.3,64.0,30.17,SSW,202,6.8,11.9,70,0.00,,,0.00,Rainwise IP-100,2013-01-14 01:28:00,
2013-01-13 20:33:00,74.4,63.5,30.16,ENE,67,5.1,11.9,69,0.00,,,0.00,Rainwise IP-100,2013-01-14 01:33:00,
2013-01-13 20:39:00,74.5,63.5,30.16,ESE,112,2.1,11.0,68,0.00,,,0.00,Rainwise IP-100,2013-01-14 01:39:00,
2013-01-13 20:44:00,74.5,64.0,30.17,ESE,112,6.5,12.4,69,0.00,,,0.00,Rainwise IP-100,2013-01-14 01:44:00,
2013-01-13 20:49:00,74.5,64.0,30.16,East,90,4.9,11.9,69,0.00,,,0.00,Rainwise IP-100,2013-01-14 01:49:00,
2013-01-13 20:54:00,74.5,64.0,30.16,East,90,4.9,10.7,69,0.00,,,0.00,Rainwise IP-100,2013-01-14 01:54:00,
2013-01-13 20:59:00,74.4,64.0,30.16,SE,135,6.5,13.3,70,0.00,,,0.00,Rainwise IP-100,2013-01-14 01:59:00,
2013-01-13 21:04:00,74.4,64.0,30.16,SSE,157,2.6,16.6,70,0.00,,,0.00,Rainwise IP-100,2013-01-14 02:04:00,
2013-01-13 21:10:00,74.4,64.0,30.16,SSE,157,15.6,16.6,70,0.00,,,0.00,Rainwise IP-100,2013-01-14 02:10:00,
2013-01-13 21:15:00,74.4,64.0,30.16,ESE,112,8.4,15.6,70,0.00,,,0.00,Rainwise IP-100,2013-01-14 02:15:00,
2013-01-13 21:20:00,74.4,64.0,30.15,South,180,6.8,14.9,70,0.00,,,0.00,Rainwise IP-100,2013-01-14 02:20:00,
2013-01-13 21:25:00,74.4,63.5,30.15,South,180,3.7,12.1,69,0.00,,,0.00,Rainwise IP-100,2013-01-14 02:25:00,
2013-01-13 21:30:00,74.4,63.5,30.15,East,90,1.4,12.4,69,0.00,,,0.00,Rainwise IP-100,2013-01-14 02:30:00,
2013-01-13 21:35:00,74.3,64.0,30.15,SSE,157,8.4,21.9,70,0.00,,,0.00,Rainwise IP-100,2013-01-14 02:35:00,
2013-01-13 21:41:00,74.3,63.5,30.14,East,90,4.9,16.3,69,0.00,,,0.00,Rainwise IP-100,2013-01-14 02:41:00,
2013-01-13 21:46:00,74.4,64.0,30.15,ESE,112,7.9,15.2,70,0.00,,,0.00,Rainwise IP-100,2013-01-14 02:46:00,
2013-01-13 21:51:00,74.3,64.5,30.15,SSE,157,4.0,16.3,71,0.00,,,0.00,Rainwise IP-100,2013-01-14 02:51:00,
2013-01-13 21:56:00,74.3,64.0,30.15,ESE,112,12.6,12.6,70,0.00,,,0.00,Rainwise IP-100,2013-01-14 02:56:00,
2013-01-13 22:01:00,74.3,64.0,30.15,ESE,112,12.4,18.4,70,0.00,,,0.00,Rainwise IP-100,2013-01-14 03:01:00,
2013-01-13 22:06:00,74.3,63.5,30.15,East,90,2.8,16.8,69,0.00,,,0.00,Rainwise IP-100,2013-01-14 03:06:00,
2013-01-13 22:12:00,74.3,63.5,30.15,SE,135,7.2,16.3,69,0.00,,,0.00,Rainwise IP-100,2013-01-14 03:12:00,
2013-01-13 22:17:00,74.3,63.0,30.16,SSE,157,6.1,14.0,68,0.00,,,0.00,Rainwise IP-100,2013-01-14 03:17:00,
2013-01-13 22:22:00,74.3,63.0,30.15,ESE,112,11.9,17.3,67,0.00,,,0.00,Rainwise IP-100,2013-01-14 03:22:00,
2013-01-13 22:27:00,74.4,63.0,30.16,ESE,112,2.3,16.6,67,0.00,,,0.00,Rainwise IP-100,2013-01-14 03:27:00,
2013-01-13 22:32:00,74.4,63.0,30.15,East,90,8.9,10.0,67,0.00,,,0.00,Rainwise IP-100,2013-01-14 03:32:00,
2013-01-13 22:37:00,74.5,63.0,30.16,ESE,112,3.7,12.4,67,0.00,,,0.00,Rainwise IP-100,2013-01-14 03:37:00,
2013-01-13 22:43:00,74.6,62.5,30.16,East,90,5.1,15.2,65,0.00,,,0.00,Rainwise IP-100,2013-01-14 03:43:00,
2013-01-13 22:48:00,74.7,62.0,30.17,SE,135,8.9,14.0,64,0.00,,,0.00,Rainwise IP-100,2013-01-14 03:48:00,
2013-01-13 22:53:00,74.8,61.5,30.16,SSE,157,2.1,14.5,63,0.00,,,0.00,Rainwise IP-100,2013-01-14 03:53:00,
2013-01-13 22:58:00,74.8,61.5,30.16,South,180,7.7,12.6,63,0.00,,,0.00,Rainwise IP-100,2013-01-14 03:58:00,
2013-01-13 23:03:00,74.9,61.0,30.16,SE,135,12.1,14.2,61,0.00,,,0.00,Rainwise IP-100,2013-01-14 04:03:00,
2013-01-13 23:08:00,75.0,60.5,30.17,ESE,112,10.5,17.7,60,0.00,,,0.00,Rainwise IP-100,2013-01-14 04:08:00,
2013-01-13 23:14:00,75.0,60.5,30.16,SSE,157,7.5,15.2,60,0.00,,,0.00,Rainwise IP-100,2013-01-14 04:14:00,
2013-01-13 23:19:00,75.0,61.0,30.16,SSE,157,3.5,15.6,61,0.00,,,0.00,Rainwise IP-100,2013-01-14 04:19:00,
2013-01-13 23:24:00,74.9,61.5,30.16,SSE,157,15.6,15.6,62,0.00,,,0.00,Rainwise IP-100,2013-01-14 04:24:00,
2013-01-13 23:29:00,74.9,61.0,30.16,ESE,112,4.0,16.8,61,0.00,,,0.00,Rainwise IP-100,2013-01-14 04:29:00,
2013-01-13 23:34:00,75.0,60.5,30.16,SE,135,9.1,15.6,60,0.00,,,0.00,Rainwise IP-100,2013-01-14 04:34:00,
2013-01-13 23:39:00,74.9,61.0,30.16,NE,45,11.0,14.7,61,0.00,,,0.00,Rainwise IP-100,2013-01-14 04:39:00,
2013-01-13 23:45:00,74.8,61.5,30.16,SE,135,11.2,18.7,63,0.00,,,0.00,Rainwise IP-100,2013-01-14 04:45:00,
2013-01-13 23:50:00,74.7,61.5,30.16,SSE,157,7.7,16.6,63,0.00,,,0.00,Rainwise IP-100,2013-01-14 04:50:00,
2013-01-13 23:55:00,74.7,61.0,30.16,ESE,112,10.5,15.4,62,0.00,,,0.00,Rainwise IP-100,2013-01-14 04:55:00,